| time (UTC) | temp F | wind direction | speed MPH | gust MPH | rain 1hr in | rain 24hr in | rain mn in | humidity % | barometer mb |
| 20260507042644 | 46 | 342 | 0.0 | 3.0 | 0.00 | 0.00 | 0.00 | 77 | 1021.7 |
| 20260507042139 | 46 | 342 | 0.0 | 3.0 | 0.00 | 0.00 | 0.00 | 76 | 1021.7 |
| 20260507041637 | 47 | 357 | 3.0 | 3.0 | 0.00 | 0.00 | 0.00 | 76 | 1021.7 |
| 20260507041133 | 47 | 352 | 2.0 | 3.0 | 0.00 | 0.00 | 0.00 | 76 | 1021.7 |
| 20260507040630 | 47 | 318 | 3.0 | 3.0 | 0.00 | 0.00 | 0.00 | 75 | 1021.9 |
| 20260507040126 | 47 | 312 | 2.0 | 4.0 | 0.00 | 0.00 | 0.00 | 75 | 1021.8 |
| 20260507035622 | 48 | 354 | 0.0 | 4.0 | 0.00 | 0.00 | 0.00 | 75 | 1021.6 |
| 20260507035118 | 48 | 342 | 3.0 | 4.0 | 0.00 | 0.00 | 0.00 | 75 | 1021.6 |
| 20260507034615 | 48 | 354 | 3.0 | 4.0 | 0.00 | 0.00 | 0.00 | 75 | 1021.6 |
| 20260507034113 | 48 | 338 | 2.0 | 4.0 | 0.00 | 0.00 | 0.00 | 75 | 1021.5 |
| 20260507033611 | 48 | 349 | 3.0 | 4.0 | 0.00 | 0.00 | 0.00 | 75 | 1021.5 |
| 20260507033108 | 48 | 330 | 2.0 | 3.0 | 0.00 | 0.00 | 0.00 | 74 | 1021.5 |
| 20260507032605 | 49 | 318 | 7.0 | 7.0 | 0.00 | 0.00 | 0.00 | 74 | 1021.5 |
| 20260507032056 | 49 | 328 | 3.0 | 5.0 | 0.00 | 0.00 | 0.00 | 74 | 1021.2 |
| 20260507031552 | 49 | 343 | 4.0 | 8.0 | 0.00 | 0.00 | 0.00 | 73 | 1021.5 |
| 20260507031050 | 49 | 332 | 3.0 | 4.0 | 0.00 | 0.00 | 0.00 | 75 | 1021.3 |
| 20260507030546 | 49 | 322 | 3.0 | 5.0 | 0.00 | 0.00 | 0.00 | 75 | 1021.2 |
| 20260507030044 | 48 | 311 | 3.0 | 3.0 | 0.00 | 0.00 | 0.00 | 76 | 1021.3 |
| 20260507025541 | 48 | 301 | 2.0 | 3.0 | 0.00 | 0.00 | 0.00 | 78 | 1021.3 |
| 20260507025038 | 49 | 294 | 1.0 | 3.0 | 0.00 | 0.00 | 0.00 | 77 | 1021.3 |
| 20260507024536 | 49 | 295 | 2.0 | 2.0 | 0.00 | 0.00 | 0.00 | 75 | 1021.0 |
| 20260507024032 | 50 | 331 | 1.0 | 2.0 | 0.00 | 0.00 | 0.00 | 75 | 1020.8 |
| 20260507023528 | 49 | 306 | 0.0 | 2.0 | 0.00 | 0.00 | 0.00 | 74 | 1020.8 |
| 20260507023026 | 50 | 290 | 2.0 | 2.0 | 0.00 | 0.00 | 0.00 | 73 | 1020.8 |
| 20260507022523 | 50 | 334 | 1.0 | 2.0 | 0.00 | 0.00 | 0.00 | 72 | 1020.8 |
| 20260507022018 | 50 | 350 | 0.0 | 2.0 | 0.00 | 0.00 | 0.00 | 71 | 1020.9 |
| 20260507021514 | 50 | 325 | 1.0 | 2.0 | 0.00 | 0.00 | 0.00 | 72 | 1020.8 |
| 20260507021011 | 50 | 300 | 0.0 | 2.0 | 0.00 | 0.00 | 0.00 | 72 | 1020.7 |
| 20260507020508 | 51 | 341 | 2.0 | 3.0 | 0.00 | 0.00 | 0.00 | 71 | 1021.0 |
| 20260507020005 | 51 | 303 | 1.0 | 2.0 | 0.00 | 0.00 | 0.00 | 71 | 1020.6 |
| 20260507015503 | 51 | 325 | 1.0 | 2.0 | 0.00 | 0.00 | 0.00 | 72 | 1020.6 |
| 20260507015000 | 51 | 324 | 3.0 | 3.0 | 0.00 | 0.00 | 0.00 | 72 | 1020.6 |
| 20260507014457 | 51 | 276 | 2.0 | 2.0 | 0.00 | 0.00 | 0.00 | 71 | 1020.5 |
| 20260507013953 | 52 | 346 | 3.0 | 4.0 | 0.00 | 0.00 | 0.00 | 70 | 1020.5 |
| 20260507013449 | 52 | 334 | 2.0 | 3.0 | 0.00 | 0.00 | 0.00 | 71 | 1020.4 |
| 20260507012947 | 52 | 10 | 2.0 | 2.0 | 0.00 | 0.00 | 0.00 | 70 | 1020.5 |
| 20260507012443 | 52 | 327 | 2.0 | 2.0 | 0.00 | 0.00 | 0.00 | 69 | 1020.4 |
| 20260507011940 | 52 | 346 | 2.0 | 2.0 | 0.00 | 0.00 | 0.00 | 68 | 1020.4 |
| 20260507011437 | 53 | 357 | 3.0 | 3.0 | 0.00 | 0.00 | 0.00 | 67 | 1020.2 |
| 20260507010937 | 53 | 318 | 3.0 | 3.0 | 0.00 | 0.00 | 0.00 | 67 | 1020.2 |
| 20260507010432 | 53 | 337 | 1.0 | 3.0 | 0.00 | 0.00 | 0.00 | 66 | 1020.4 |
| 20260507005929 | 54 | 333 | 3.0 | 3.0 | 0.00 | 0.00 | 0.00 | 64 | 1020.0 |
| 20260507005426 | 55 | 324 | 2.0 | 3.0 | 0.00 | 0.00 | 0.00 | 63 | 1020.2 |
| 20260507004918 | 55 | 307 | 2.0 | 3.0 | 0.00 | 0.00 | 0.00 | 63 | 1020.2 |
| 20260507004414 | 55 | 358 | 3.0 | 5.0 | 0.00 | 0.00 | 0.00 | 61 | 1020.1 |
| 20260507003912 | 56 | 346 | 4.0 | 5.0 | 0.00 | 0.00 | 0.00 | 60 | 1020.0 |
| 20260507003407 | 56 | 0 | 2.0 | 6.0 | 0.00 | 0.00 | 0.00 | 59 | 1020.0 |
| 20260507002903 | 57 | 324 | 3.0 | 5.0 | 0.00 | 0.00 | 0.00 | 58 | 1019.9 |
| 20260507002359 | 57 | 346 | 3.0 | 5.0 | 0.00 | 0.00 | 0.00 | 57 | 1019.8 |
| 20260507001856 | 59 | 334 | 4.0 | 8.0 | 0.00 | 0.00 | 0.00 | 54 | 1020.0 |
| 20260507001353 | 59 | 5 | 6.0 | 9.0 | 0.00 | 0.00 | 0.00 | 53 | 1019.7 |
| 20260507000850 | 59 | 6 | 5.0 | 11.0 | 0.00 | 0.00 | 0.00 | 53 | 1019.8 |
| 20260507000345 | 60 | 328 | 5.0 | 9.0 | 0.00 | 0.00 | 0.00 | 54 | 1019.9 |
| 20260506235842 | 60 | 11 | 9.0 | 9.0 | 0.00 | 0.00 | 0.00 | 51 | 1019.4 |
| 20260506235339 | 60 | 4 | 7.0 | 7.0 | 0.00 | 0.00 | 0.00 | 53 | 1019.5 |
| 20260506234834 | 60 | 331 | 6.0 | 14.0 | 0.00 | 0.00 | 0.00 | 51 | 1019.4 |
| 20260506234332 | 60 | 334 | 5.0 | 9.0 | 0.00 | 0.00 | 0.00 | 52 | 1019.7 |
| 20260506233829 | 60 | 72 | 3.0 | 9.0 | 0.00 | 0.00 | 0.00 | 53 | 1019.7 |
| 20260506233320 | 60 | 10 | 9.0 | 17.0 | 0.00 | 0.00 | 0.00 | 51 | 1019.4 |
| 20260506232817 | 59 | 13 | 12.0 | 12.0 | 0.00 | 0.00 | 0.00 | 55 | 1019.5 |
| 20260506232312 | 59 | 15 | 12.0 | 13.0 | 0.00 | 0.00 | 0.00 | 54 | 1019.1 |
| 20260506231809 | 60 | 3 | 10.0 | 11.0 | 0.00 | 0.00 | 0.00 | 55 | 1019.0 |
| 20260506231307 | 60 | 7 | 7.0 | 13.0 | 0.00 | 0.00 | 0.00 | 53 | 1018.6 |
| 20260506230804 | 60 | 10 | 11.0 | 15.0 | 0.00 | 0.00 | 0.00 | 54 | 1018.7 |
| 20260506230301 | 60 | 18 | 9.0 | 15.0 | 0.00 | 0.00 | 0.00 | 54 | 1019.0 |
| 20260506225757 | 60 | 13 | 6.0 | 10.0 | 0.00 | 0.00 | 0.00 | 55 | 1018.5 |
| 20260506225254 | 60 | 326 | 5.0 | 14.0 | 0.00 | 0.00 | 0.00 | 56 | 1018.9 |
| 20260506224745 | 60 | 356 | 5.0 | 12.0 | 0.00 | 0.00 | 0.00 | 53 | 1018.9 |
| 20260506224243 | 61 | 4 | 7.0 | 11.0 | 0.00 | 0.00 | 0.00 | 55 | 1018.9 |
| 20260506223738 | 60 | 2 | 4.0 | 12.0 | 0.00 | 0.00 | 0.00 | 58 | 1019.0 |
| 20260506223234 | 59 | 13 | 8.0 | 12.0 | 0.00 | 0.00 | 0.00 | 57 | 1019.0 |
| 20260506222731 | 60 | 17 | 11.0 | 17.0 | 0.00 | 0.00 | 0.00 | 56 | 1018.7 |
| 20260506222227 | 62 | 2 | 9.0 | 12.0 | 0.00 | 0.00 | 0.00 | 55 | 1018.9 |
| 20260506221725 | 62 | 17 | 5.0 | 11.0 | 0.00 | 0.00 | 0.00 | 54 | 1018.7 |
| 20260506221223 | 61 | 8 | 2.0 | 9.0 | 0.00 | 0.00 | 0.00 | 55 | 1019.0 |
| 20260506220720 | 62 | 27 | 11.0 | 15.0 | 0.00 | 0.00 | 0.00 | 54 | 1019.0 |
| 20260506220214 | 61 | 315 | 8.0 | 14.0 | 0.00 | 0.00 | 0.00 | 53 | 1018.7 |
| 20260506215711 | 61 | 8 | 11.0 | 15.0 | 0.00 | 0.00 | 0.00 | 54 | 1018.9 |
| 20260506215207 | 61 | 337 | 2.0 | 7.0 | 0.00 | 0.00 | 0.00 | 55 | 1019.0 |
| 20260506214704 | 61 | 347 | 8.0 | 14.0 | 0.00 | 0.00 | 0.00 | 54 | 1018.9 |
| 20260506214201 | 61 | 329 | 8.0 | 15.0 | 0.00 | 0.00 | 0.00 | 57 | 1018.9 |
| 20260506213659 | 61 | 351 | 7.0 | 12.0 | 0.00 | 0.00 | 0.00 | 58 | 1019.0 |
| 20260506213156 | 62 | 3 | 3.0 | 14.0 | 0.00 | 0.00 | 0.00 | 58 | 1019.1 |
| 20260506212653 | 61 | 36 | 7.0 | 12.0 | 0.00 | 0.00 | 0.00 | 54 | 1018.9 |
| 20260506212148 | 62 | 24 | 11.0 | 14.0 | 0.00 | 0.00 | 0.00 | 56 | 1019.0 |
| 20260506211644 | 60 | 326 | 7.0 | 10.0 | 0.00 | 0.00 | 0.00 | 54 | 1019.1 |
| 20260506211141 | 61 | 16 | 10.0 | 22.0 | 0.00 | 0.00 | 0.00 | 56 | 1019.1 |
| 20260506210638 | 60 | 15 | 5.0 | 13.0 | 0.00 | 0.00 | 0.00 | 59 | 1019.2 |
| 20260506210134 | 60 | 10 | 10.0 | 13.0 | 0.00 | 0.00 | 0.00 | 56 | 1019.2 |
| 20260506205631 | 59 | 13 | 11.0 | 16.0 | 0.00 | 0.00 | 0.00 | 57 | 1019.4 |
| 20260506205126 | 60 | 8 | 11.0 | 17.0 | 0.00 | 0.00 | 0.00 | 55 | 1019.4 |
| 20260506204625 | 61 | 61 | 3.0 | 8.0 | 0.00 | 0.00 | 0.00 | 54 | 1019.4 |
| 20260506204121 | 60 | 336 | 7.0 | 14.0 | 0.00 | 0.00 | 0.00 | 57 | 1019.6 |
| 20260506203620 | 60 | 339 | 3.0 | 8.0 | 0.00 | 0.00 | 0.00 | 58 | 1019.8 |
| 20260506203116 | 59 | 348 | 4.0 | 12.0 | 0.00 | 0.00 | 0.00 | 57 | 1020.0 |
| 20260506202614 | 59 | 355 | 6.0 | 15.0 | 0.00 | 0.00 | 0.00 | 58 | 1020.0 |
| 20260506202110 | 61 | 11 | 11.0 | 16.0 | 0.00 | 0.00 | 0.00 | 58 | 1019.6 |
| 20260506201607 | 62 | 42 | 7.0 | 10.0 | 0.00 | 0.00 | 0.00 | 60 | 1019.9 |
| 20260506201104 | 60 | 1 | 6.0 | 9.0 | 0.00 | 0.00 | 0.00 | 58 | 1020.2 |
| 20260506200600 | 61 | 355 | 4.0 | 10.0 | 0.00 | 0.00 | 0.00 | 59 | 1019.9 |
| 20260506200057 | 59 | 9 | 4.0 | 11.0 | 0.00 | 0.00 | 0.00 | 57 | 1019.9 |
| 20260506195553 | 60 | 57 | 7.0 | 13.0 | 0.00 | 0.00 | 0.00 | 57 | 1019.7 |
| 20260506195050 | 60 | 22 | 3.0 | 11.0 | 0.00 | 0.00 | 0.00 | 60 | 1020.0 |
| 20260506194548 | 59 | 90 | 3.0 | 11.0 | 0.00 | 0.00 | 0.00 | 61 | 1020.1 |
| 20260506194043 | 60 | 45 | 6.0 | 8.0 | 0.00 | 0.00 | 0.00 | 62 | 1020.2 |
| 20260506193541 | 59 | 18 | 5.0 | 14.0 | 0.00 | 0.00 | 0.00 | 62 | 1020.1 |
| 20260506193039 | 59 | 7 | 7.0 | 11.0 | 0.00 | 0.00 | 0.00 | 62 | 1020.3 |
| 20260506192535 | 59 | 9 | 5.0 | 8.0 | 0.00 | 0.00 | 0.00 | 62 | 1020.3 |
| 20260506192031 | 58 | 17 | 9.0 | 14.0 | 0.00 | 0.00 | 0.00 | 63 | 1020.3 |
| 20260506191528 | 58 | 346 | 6.0 | 14.0 | 0.00 | 0.00 | 0.00 | 62 | 1020.4 |
| 20260506191024 | 59 | 1 | 5.0 | 9.0 | 0.00 | 0.00 | 0.00 | 62 | 1020.2 |
| 20260506190521 | 59 | 359 | 9.0 | 16.0 | 0.00 | 0.00 | 0.00 | 63 | 1020.5 |
| 20260506190019 | 58 | 45 | 5.0 | 10.0 | 0.00 | 0.00 | 0.00 | 62 | 1020.4 |
| 20260506185515 | 59 | 0 | 3.0 | 13.0 | 0.00 | 0.00 | 0.00 | 67 | 1020.3 |
| 20260506185012 | 58 | 77 | 2.0 | 10.0 | 0.00 | 0.00 | 0.00 | 64 | 1020.6 |
| 20260506184509 | 57 | 22 | 12.0 | 18.0 | 0.00 | 0.00 | 0.00 | 62 | 1020.6 |
| 20260506184006 | 58 | 3 | 3.0 | 9.0 | 0.00 | 0.00 | 0.00 | 64 | 1020.8 |
| 20260506183503 | 57 | 3 | 5.0 | 11.0 | 0.00 | 0.00 | 0.00 | 67 | 1020.9 |
| 20260506182959 | 56 | 354 | 7.0 | 11.0 | 0.00 | 0.00 | 0.00 | 66 | 1021.1 |
| 20260506182456 | 57 | 324 | 13.0 | 16.0 | 0.00 | 0.00 | 0.00 | 66 | 1021.2 |
| 20260506181953 | 57 | 352 | 4.0 | 8.0 | 0.00 | 0.00 | 0.00 | 66 | 1021.7 |
| 20260506181451 | 57 | 64 | 7.0 | 12.0 | 0.00 | 0.00 | 0.00 | 67 | 1021.8 |
| 20260506180948 | 56 | 342 | 2.0 | 7.0 | 0.00 | 0.00 | 0.00 | 66 | 1021.7 |
| 20260506180444 | 56 | 324 | 13.0 | 13.0 | 0.00 | 0.00 | 0.00 | 66 | 1021.6 |
| 20260506175941 | 57 | 8 | 6.0 | 16.0 | 0.00 | 0.00 | 0.00 | 66 | 1021.8 |
| 20260506175438 | 57 | 13 | 6.0 | 9.0 | 0.00 | 0.00 | 0.00 | 65 | 1021.8 |
| 20260506174934 | 57 | 6 | 0.0 | 7.0 | 0.00 | 0.00 | 0.00 | 65 | 1021.5 |
| 20260506174433 | 57 | 28 | 5.0 | 12.0 | 0.00 | 0.00 | 0.00 | 65 | 1021.7 |
| 20260506173929 | 57 | 349 | 3.0 | 13.0 | 0.00 | 0.00 | 0.00 | 67 | 1021.7 |
| 20260506173426 | 58 | 80 | 5.0 | 7.0 | 0.00 | 0.00 | 0.00 | 67 | 1021.3 |
| 20260506172923 | 57 | 10 | 5.0 | 6.0 | 0.00 | 0.00 | 0.00 | 65 | 1021.6 |
| 20260506172419 | 57 | 1 | 5.0 | 8.0 | 0.00 | 0.00 | 0.00 | 67 | 1021.5 |
| 20260506171916 | 58 | 22 | 7.0 | 9.0 | 0.00 | 0.00 | 0.00 | 64 | 1021.6 |
| 20260506171414 | 58 | 30 | 7.0 | 10.0 | 0.00 | 0.00 | 0.00 | 69 | 1021.6 |
| 20260506170911 | 57 | 331 | 6.0 | 10.0 | 0.00 | 0.00 | 0.00 | 66 | 1021.7 |
| 20260506170407 | 57 | 63 | 0.0 | 9.0 | 0.00 | 0.00 | 0.00 | 62 | 1021.7 |
| 20260506165901 | 57 | 9 | 6.0 | 8.0 | 0.00 | 0.00 | 0.00 | 65 | 1021.8 |
| 20260506165359 | 56 | 0 | 3.0 | 10.0 | 0.00 | 0.00 | 0.00 | 65 | 1021.7 |
| 20260506164855 | 57 | 22 | 2.0 | 8.0 | 0.00 | 0.00 | 0.00 | 64 | 1021.8 |
| 20260506164351 | 57 | 24 | 6.0 | 12.0 | 0.00 | 0.00 | 0.00 | 68 | 1021.8 |
| 20260506163849 | 57 | 11 | 2.0 | 12.0 | 0.00 | 0.00 | 0.00 | 67 | 1021.6 |
| 20260506163343 | 56 | 350 | 3.0 | 9.0 | 0.00 | 0.00 | 0.00 | 68 | 1021.5 |
| 20260506162839 | 55 | 43 | 7.0 | 12.0 | 0.00 | 0.00 | 0.00 | 67 | 1021.2 |
| 20260506162337 | 54 | 19 | 4.0 | 13.0 | 0.00 | 0.00 | 0.00 | 68 | 1021.0 |
| 20260506161829 | 54 | 3 | 4.0 | 10.0 | 0.00 | 0.00 | 0.00 | 70 | 1020.8 |
| 20260506161326 | 53 | 26 | 1.0 | 13.0 | 0.00 | 0.00 | 0.00 | 71 | 1020.5 |
| 20260506160823 | 53 | 56 | 5.0 | 11.0 | 0.00 | 0.00 | 0.00 | 71 | 1020.6 |
| 20260506160319 | 53 | 17 | 6.0 | 10.0 | 0.00 | 0.00 | 0.00 | 70 | 1020.7 |
| 20260506155818 | 53 | 45 | 10.0 | 15.0 | 0.00 | 0.00 | 0.00 | 70 | 1021.0 |
| 20260506155315 | 53 | 351 | 4.0 | 11.0 | 0.00 | 0.00 | 0.00 | 70 | 1021.0 |
| 20260506153428 | 52 | 35 | 15.0 | 15.0 | 0.00 | 0.00 | 0.00 | 71 | 1020.9 |
| 20260506152925 | 52 | 22 | 9.0 | 14.0 | 0.00 | 0.00 | 0.00 | 73 | 1021.0 |
| 20260506152421 | 52 | 105 | 5.0 | 13.0 | 0.00 | 0.00 | 0.00 | 73 | 1020.6 |
| 20260506151920 | 52 | 21 | 7.0 | 13.0 | 0.00 | 0.00 | 0.00 | 75 | 1020.5 |
| 20260506151417 | 51 | 61 | 2.0 | 10.0 | 0.00 | 0.00 | 0.00 | 76 | 1020.9 |
| 20260506150914 | 51 | 64 | 10.0 | 12.0 | 0.00 | 0.00 | 0.00 | 75 | 1020.5 |
| 20260506150410 | 51 | 41 | 5.0 | 16.0 | 0.00 | 0.00 | 0.00 | 77 | 1020.7 |
| 20260506145908 | 51 | 40 | 7.0 | 13.0 | 0.00 | 0.00 | 0.00 | 77 | 1020.7 |
| 20260506145403 | 51 | 48 | 2.0 | 15.0 | 0.00 | 0.00 | 0.00 | 77 | 1020.8 |
| 20260506144901 | 50 | 57 | 3.0 | 11.0 | 0.00 | 0.00 | 0.00 | 78 | 1021.0 |
| 20260506144357 | 50 | 50 | 5.0 | 11.0 | 0.00 | 0.00 | 0.00 | 79 | 1020.7 |
| 20260506143856 | 49 | 105 | 8.0 | 12.0 | 0.00 | 0.00 | 0.00 | 78 | 1020.7 |
| 20260506143353 | 49 | 70 | 11.0 | 11.0 | 0.00 | 0.00 | 0.00 | 78 | 1020.9 |
| 20260506142851 | 49 | 6 | 4.0 | 11.0 | 0.00 | 0.00 | 0.00 | 79 | 1020.8 |
| 20260506142348 | 48 | 37 | 6.0 | 12.0 | 0.00 | 0.00 | 0.00 | 79 | 1021.0 |
| 20260506141847 | 48 | 6 | 11.0 | 18.0 | 0.00 | 0.00 | 0.00 | 80 | 1021.1 |
| 20260506141344 | 48 | 29 | 1.0 | 8.0 | 0.00 | 0.00 | 0.00 | 81 | 1020.9 |
| 20260506140843 | 48 | 345 | 0.0 | 13.0 | 0.00 | 0.00 | 0.00 | 81 | 1021.0 |
| 20260506140339 | 48 | 357 | 2.0 | 11.0 | 0.00 | 0.00 | 0.00 | 81 | 1020.7 |
| 20260506135836 | 49 | 69 | 3.0 | 11.0 | 0.00 | 0.00 | 0.00 | 85 | 1020.5 |
| 20260506135333 | 48 | 148 | 3.0 | 15.0 | 0.00 | 0.00 | 0.00 | 86 | 1020.6 |
| 20260506134829 | 47 | 41 | 4.0 | 13.0 | 0.00 | 0.00 | 0.00 | 86 | 1020.9 |
| 20260506134325 | 48 | 60 | 6.0 | 10.0 | 0.00 | 0.00 | 0.00 | 87 | 1021.0 |
| 20260506133823 | 48 | 22 | 7.0 | 9.0 | 0.00 | 0.00 | 0.00 | 89 | 1020.8 |
| 20260506133319 | 47 | 28 | 5.0 | 14.0 | 0.00 | 0.00 | 0.00 | 88 | 1020.7 |
| 20260506132816 | 47 | 5 | 6.0 | 12.0 | 0.00 | 0.00 | 0.00 | 90 | 1020.7 |
| 20260506132313 | 47 | 14 | 6.0 | 14.0 | 0.00 | 0.00 | 0.00 | 90 | 1020.5 |
| 20260506131811 | 47 | 16 | 9.0 | 12.0 | 0.00 | 0.00 | 0.00 | 90 | 1021.0 |
| 20260506131307 | 47 | 13 | 9.0 | 9.0 | 0.00 | 0.00 | 0.00 | 91 | 1020.7 |
| 20260506130804 | 47 | 356 | 6.0 | 10.0 | 0.00 | 0.00 | 0.00 | 92 | 1020.4 |
| 20260506130301 | 46 | 354 | 9.0 | 11.0 | 0.00 | 0.00 | 0.00 | 93 | 1020.6 |
| 20260506125759 | 46 | 7 | 6.0 | 15.0 | 0.00 | 0.00 | 0.00 | 92 | 1020.1 |
| 20260506125256 | 46 | 21 | 4.0 | 15.0 | 0.00 | 0.00 | 0.00 | 92 | 1020.5 |
| 20260506124755 | 46 | 84 | 1.0 | 8.0 | 0.00 | 0.00 | 0.00 | 93 | 1020.4 |
| 20260506124252 | 46 | 39 | 8.0 | 11.0 | 0.00 | 0.00 | 0.00 | 92 | 1020.3 |
| 20260506123749 | 46 | 10 | 7.0 | 13.0 | 0.00 | 0.00 | 0.00 | 92 | 1020.4 |
| 20260506123248 | 46 | 47 | 5.0 | 10.0 | 0.00 | 0.00 | 0.00 | 93 | 1020.4 |
| 20260506122744 | 46 | 4 | 5.0 | 11.0 | 0.00 | 0.00 | 0.00 | 93 | 1020.5 |
| 20260506122241 | 45 | 0 | 7.0 | 11.0 | 0.00 | 0.00 | 0.00 | 93 | 1020.4 |
| 20260506121740 | 45 | 10 | 6.0 | 11.0 | 0.00 | 0.00 | 0.00 | 93 | 1020.5 |
| 20260506121236 | 45 | 18 | 10.0 | 12.0 | 0.00 | 0.00 | 0.00 | 93 | 1020.6 |
| 20260506120733 | 45 | 352 | 6.0 | 12.0 | 0.00 | 0.00 | 0.00 | 93 | 1020.4 |
| 20260506120231 | 45 | 6 | 6.0 | 10.0 | 0.00 | 0.00 | 0.00 | 94 | 1020.6 |
| 20260506115729 | 45 | 5 | 4.0 | 15.0 | 0.00 | 0.00 | 0.00 | 94 | 1020.3 |
| 20260506115227 | 45 | 8 | 8.0 | 11.0 | 0.00 | 0.00 | 0.00 | 94 | 1020.0 |
| 20260506114724 | 45 | 347 | 4.0 | 9.0 | 0.00 | 0.00 | 0.00 | 95 | 1020.0 |
| 20260506114222 | 45 | 8 | 5.0 | 10.0 | 0.00 | 0.00 | 0.00 | 95 | 1020.0 |
| 20260506113720 | 45 | 352 | 6.0 | 11.0 | 0.00 | 0.00 | 0.00 | 95 | 1020.2 |
| 20260506113217 | 45 | 337 | 5.0 | 13.0 | 0.00 | 0.00 | 0.00 | 95 | 1020.3 |
| 20260506112713 | 45 | 357 | 3.0 | 7.0 | 0.00 | 0.00 | 0.00 | 95 | 1020.0 |
| 20260506112211 | 45 | 12 | 5.0 | 9.0 | 0.00 | 0.00 | 0.00 | 95 | 1019.9 |
| 20260506111708 | 45 | 346 | 4.0 | 11.0 | 0.00 | 0.00 | 0.00 | 94 | 1019.7 |
| 20260506111207 | 45 | 353 | 5.0 | 11.0 | 0.00 | 0.00 | 0.00 | 94 | 1019.5 |
| 20260506110703 | 45 | 3 | 5.0 | 7.0 | 0.00 | 0.00 | 0.00 | 94 | 1019.5 |
| 20260506110201 | 45 | 0 | 4.0 | 8.0 | 0.00 | 0.00 | 0.00 | 94 | 1019.5 |
| 20260506105657 | 45 | 345 | 3.0 | 6.0 | 0.00 | 0.00 | 0.00 | 94 | 1019.2 |
| 20260506105154 | 45 | 0 | 4.0 | 5.0 | 0.00 | 0.00 | 0.00 | 94 | 1019.2 |
| 20260506104652 | 45 | 354 | 5.0 | 7.0 | 0.00 | 0.00 | 0.00 | 94 | 1019.2 |
| 20260506104149 | 45 | 7 | 7.0 | 13.0 | 0.00 | 0.00 | 0.00 | 93 | 1019.1 |
| 20260506103646 | 45 | 313 | 3.0 | 8.0 | 0.00 | 0.00 | 0.00 | 93 | 1019.2 |
| 20260506103143 | 45 | 340 | 3.0 | 7.0 | 0.00 | 0.00 | 0.00 | 93 | 1018.9 |
| 20260506102642 | 45 | 18 | 3.0 | 5.0 | 0.00 | 0.00 | 0.00 | 93 | 1018.5 |
| 20260506102139 | 45 | 77 | 0.0 | 7.0 | 0.00 | 0.00 | 0.00 | 93 | 1018.3 |
| 20260506101635 | 45 | 353 | 7.0 | 7.0 | 0.00 | 0.00 | 0.00 | 93 | 1018.2 |
| 20260506101132 | 45 | 336 | 7.0 | 8.0 | 0.00 | 0.00 | 0.00 | 93 | 1017.9 |
| 20260506100631 | 45 | 5 | 6.0 | 7.0 | 0.00 | 0.00 | 0.00 | 92 | 1018.0 |
| 20260506100128 | 45 | 19 | 2.0 | 10.0 | 0.00 | 0.00 | 0.00 | 92 | 1018.0 |
| 20260506095627 | 45 | 3 | 5.0 | 9.0 | 0.00 | 0.00 | 0.00 | 92 | 1018.2 |
| 20260506095123 | 45 | 348 | 3.0 | 11.0 | 0.00 | 0.00 | 0.00 | 91 | 1018.3 |
| 20260506094621 | 45 | 334 | 6.0 | 7.0 | 0.00 | 0.00 | 0.00 | 91 | 1018.2 |
| 20260506094118 | 45 | 339 | 3.0 | 7.0 | 0.00 | 0.00 | 0.00 | 91 | 1018.1 |
| 20260506093617 | 45 | 357 | 3.0 | 7.0 | 0.00 | 0.00 | 0.00 | 91 | 1018.2 |
| 20260506093113 | 45 | 359 | 6.0 | 8.0 | 0.00 | 0.00 | 0.00 | 91 | 1017.8 |
| 20260506092611 | 45 | 6 | 4.0 | 7.0 | 0.00 | 0.00 | 0.00 | 90 | 1017.7 |
| 20260506092108 | 45 | 346 | 6.0 | 6.0 | 0.00 | 0.00 | 0.00 | 91 | 1017.3 |
| 20260506091606 | 45 | 357 | 7.0 | 7.0 | 0.00 | 0.00 | 0.00 | 91 | 1016.9 |
| 20260506091103 | 45 | 0 | 3.0 | 6.0 | 0.00 | 0.00 | 0.00 | 91 | 1017.2 |
| 20260506090601 | 45 | 6 | 6.0 | 6.0 | 0.00 | 0.00 | 0.00 | 90 | 1017.1 |
| 20260506090057 | 45 | 12 | 0.0 | 5.0 | 0.00 | 0.00 | 0.00 | 90 | 1017.0 |
| 20260506085554 | 45 | 32 | 2.0 | 8.0 | 0.00 | 0.00 | 0.00 | 90 | 1017.2 |
| 20260506085050 | 45 | 23 | 1.0 | 5.0 | 0.00 | 0.00 | 0.00 | 90 | 1017.3 |
| 20260506084547 | 45 | 68 | 0.0 | 5.0 | 0.00 | 0.00 | 0.00 | 91 | 1017.5 |
| 20260506084044 | 45 | 348 | 4.0 | 4.0 | 0.00 | 0.00 | 0.00 | 91 | 1017.3 |
| 20260506083541 | 45 | 342 | 0.0 | 5.0 | 0.00 | 0.00 | 0.00 | 91 | 1017.2 |
| 20260506083038 | 45 | 356 | 2.0 | 5.0 | 0.00 | 0.00 | 0.00 | 92 | 1017.0 |
| 20260506082535 | 45 | 315 | 2.0 | 4.0 | 0.00 | 0.00 | 0.00 | 91 | 1017.3 |
| 20260506082031 | 45 | 319 | 2.0 | 4.0 | 0.00 | 0.00 | 0.00 | 91 | 1016.8 |
| 20260506081529 | 45 | 1 | 5.0 | 9.0 | 0.00 | 0.00 | 0.00 | 91 | 1016.9 |
| 20260506081026 | 45 | 351 | 5.0 | 5.0 | 0.00 | 0.00 | 0.00 | 90 | 1016.4 |
| 20260506080524 | 45 | 324 | 0.0 | 4.0 | 0.00 | 0.00 | 0.00 | 90 | 1016.5 |
| 20260506073507 | 45 | 33 | 6.0 | 6.0 | 0.00 | 0.00 | 0.00 | 91 | 1016.0 |
| 20260506073004 | 45 | 6 | 5.0 | 5.0 | 0.00 | 0.00 | 0.00 | 91 | 1016.3 |
| 20260506072501 | 45 | 27 | 6.0 | 9.0 | 0.00 | 0.00 | 0.00 | 91 | 1015.9 |
| 20260506071959 | 45 | 36 | 3.0 | 8.0 | 0.00 | 0.00 | 0.00 | 91 | 1016.4 |
| 20260506071457 | 45 | 66 | 2.0 | 5.0 | 0.00 | 0.00 | 0.00 | 92 | 1016.0 |
| 20260506070953 | 45 | 59 | 5.0 | 6.0 | 0.00 | 0.00 | 0.00 | 92 | 1016.4 |
| 20260506070451 | 45 | 344 | 3.0 | 9.0 | 0.00 | 0.00 | 0.00 | 92 | 1016.1 |
| 20260506062428 | 45 | 355 | 3.0 | 6.0 | 0.00 | 0.00 | 0.00 | 97 | 1017.0 |
| 20260506061924 | 45 | 29 | 1.0 | 6.0 | 0.00 | 0.00 | 0.00 | 97 | 1017.0 |
| 20260506061421 | 45 | 2 | 4.0 | 7.0 | 0.00 | 0.00 | 0.00 | 97 | 1017.2 |
| 20260506060919 | 45 | 0 | 3.0 | 7.0 | 0.00 | 0.00 | 0.00 | 98 | 1017.4 |
| 20260506060417 | 45 | 349 | 3.0 | 6.0 | 0.00 | 0.00 | 0.00 | 98 | 1017.3 |
| 20260506051348 | 46 | 6 | 4.0 | 5.0 | 0.02 | 0.00 | 0.00 | 99 | 1017.1 |
| 20260506050846 | 46 | 9 | 2.0 | 7.0 | 0.02 | 0.00 | 0.00 | 99 | 1017.1 |
| 20260506050343 | 46 | 345 | 4.0 | 6.0 | 0.00 | 0.00 | 0.00 | 99 | 1016.9 |
| 20260506044833 | 46 | 348 | 2.0 | 4.0 | 0.00 | 0.29 | 0.29 | 99 | 1016.5 |
| 20260506044331 | 46 | 357 | 5.0 | 5.0 | 0.02 | 0.29 | 0.29 | 99 | 1016.3 |
| 20260506043828 | 46 | 16 | 3.0 | 6.0 | 0.02 | 0.29 | 0.29 | 99 | 1016.4 |
| 20260506043326 | 46 | 14 | 5.0 | 6.0 | 0.00 | 0.29 | 0.29 | 99 | 1016.4 |